Date String (YYYY-MM-DD hh:mm:ss) UTC,Instrument flags,Ambient pressure (hPa),Sample flow (lpm),Bypass flow (lpm),Sample temperature (°C),Ambient temperature (°C),ASC tube jacket temperature (°C),LED temperature (°C),Box temperature (°C),Sample RH (%),Span deviation,Mass concentration (μg/m³),Mass concentration (μg/m³),Mass concentration (μg/m³)
DateTimeUTC,F1_M11,P_M11,Q1_M11,Q2_M11,T1_M11,T2_M11,T3_M11,T4_M11,T5_M11,U1_M11,ZSPAN_M11,X2_M11,X0_M11,X1_M11
2022-05-19 10:00:00,,0818.0,5.01,0.00,30.0,28.8,00.0,38.9,31.8,09.3,0000.0,0003.56,0010.07,0002.08
2022-05-19 10:01:00,,0818.0,5.00,0.00,30.0,28.8,00.0,38.9,31.8,09.4,0000.0,0003.52,0009.38,0002.09
2022-05-19 10:02:00,,0818.0,5.01,0.00,30.0,28.8,00.0,38.9,31.8,09.4,0000.0,0003.47,0008.78,0002.07
2022-05-19 10:03:00,,0818.0,4.99,0.00,30.0,28.8,00.0,38.9,31.8,09.5,0000.0,0003.49,0009.00,0002.07
2022-05-19 10:04:00,,0818.0,5.01,0.00,30.0,28.8,00.0,38.9,31.8,09.5,0000.0,0003.55,0009.16,0002.06
2022-05-19 10:05:00,,0818.0,4.99,0.00,30.0,28.8,00.0,38.9,31.8,09.6,0000.0,0003.53,0009.50,0002.05
2022-05-19 10:06:00,,0818.0,5.01,0.00,30.0,28.8,00.0,38.9,31.8,09.5,0000.0,0003.52,0010.03,0002.03
2022-05-19 10:07:00,,0817.9,5.00,0.00,30.0,28.8,00.0,38.9,31.9,09.5,0000.0,0003.53,0009.98,0002.03
2022-05-19 10:08:00,,0817.9,4.99,0.00,30.0,28.8,00.0,38.9,31.9,09.4,0000.0,0003.54,0009.86,0002.02
2022-05-19 10:09:00,,0818.0,5.01,0.00,30.0,28.8,00.0,38.9,31.8,09.3,0000.0,0003.52,0009.83,0002.01
2022-05-19 10:10:00,,0817.9,5.02,0.00,30.0,28.8,00.0,38.9,31.8,09.3,0000.0,0003.54,0009.79,0002.01
2022-05-19 10:11:00,,0817.8,4.98,0.00,30.0,28.9,00.0,38.9,31.9,09.4,0000.0,0003.54,0009.65,0001.99
2022-05-19 10:12:00,,0818.0,5.01,0.00,30.0,28.9,00.0,39.0,31.9,09.4,0000.0,0003.53,0009.60,0001.96
2022-05-19 10:13:00,,0818.0,5.01,0.00,30.0,28.9,00.0,39.0,31.8,09.5,0000.0,0003.54,0009.53,0001.96
2022-05-19 10:14:00,,0818.0,5.00,0.00,30.0,28.8,00.0,38.9,31.8,09.5,0000.0,0003.54,0009.51,0001.95
2022-05-19 10:15:00,,0818.0,5.00,0.00,30.0,28.8,00.0,38.9,31.8,09.4,0000.0,0003.50,0009.77,0001.94
2022-05-19 10:16:00,,0818.0,5.00,0.00,30.0,28.8,00.0,38.9,31.8,09.5,0000.0,0003.51,0009.78,0001.95
2022-05-19 10:17:00,,0818.0,4.99,0.00,30.0,28.8,00.0,38.9,31.8,09.4,0000.0,0003.51,0009.39,0001.95
2022-05-19 10:18:00,,0818.0,5.01,0.00,30.0,28.8,00.0,38.9,31.8,09.4,0000.0,0003.51,0009.44,0001.93
2022-05-19 10:19:00,,0817.9,4.99,0.00,30.1,28.8,00.0,39.0,31.9,09.3,0000.0,0003.52,0009.43,0001.92
2022-05-19 10:20:00,,0818.0,5.00,0.00,30.1,28.8,00.0,39.0,31.9,09.3,0000.0,0003.59,0009.62,0001.94
2022-05-19 10:21:00,,0818.0,4.99,0.00,30.1,28.8,00.0,39.0,31.8,09.5,0000.0,0003.58,0009.73,0001.93
2022-05-19 10:22:00,,0817.9,5.00,0.00,30.1,28.8,00.0,39.0,31.8,09.4,0000.0,0003.59,0010.56,0001.94
2022-05-19 10:23:00,,0817.7,4.99,0.00,30.1,28.8,00.0,39.0,31.9,09.3,0000.0,0003.62,0011.87,0001.96
2022-05-19 10:24:00,,0817.8,5.00,0.00,30.1,28.8,00.0,39.0,31.9,09.0,0000.0,0003.57,0011.91,0001.96
2022-05-19 10:25:00,,0817.9,5.00,0.00,30.1,28.8,00.0,39.0,31.8,09.1,0000.0,0003.62,0012.31,0001.98
2022-05-19 10:26:00,,0817.8,5.00,0.00,30.1,28.8,00.0,39.0,31.8,09.2,0000.0,0003.58,0011.77,0001.97
2022-05-19 10:27:00,,0817.7,4.99,0.00,30.0,28.8,00.0,39.0,31.9,09.0,0000.0,0003.61,0011.17,0001.97
2022-05-19 10:28:00,,0817.7,5.00,0.00,30.0,28.8,00.0,39.0,31.8,08.9,0000.0,0003.64,0010.68,0001.97
2022-05-19 10:29:00,,0817.7,5.00,0.00,30.0,28.8,00.0,39.0,31.8,08.9,0000.0,0003.65,0010.69,0001.96
2022-05-19 10:30:00,,0817.8,5.01,0.00,30.0,28.8,00.0,39.0,31.8,08.7,0000.0,0003.65,0010.78,0001.97
2022-05-19 10:31:00,,0817.9,5.00,0.00,30.0,28.8,00.0,39.0,31.8,08.7,0000.0,0003.60,0010.80,0001.94
2022-05-19 10:32:00,,0817.8,4.99,0.00,30.0,28.8,00.0,39.0,31.8,08.8,0000.0,0003.62,0011.20,0001.93
2022-05-19 10:33:00,,0817.7,5.00,0.00,30.0,28.8,00.0,39.0,31.8,08.9,0000.0,0003.65,0011.06,0001.93
2022-05-19 10:34:00,,0817.7,5.00,0.00,30.0,28.8,00.0,39.0,31.8,08.9,0000.0,0003.66,0009.90,0001.92
2022-05-19 10:35:00,,0817.7,5.01,0.00,30.0,28.8,00.0,39.0,31.8,08.8,0000.0,0003.71,0009.71,0001.91
2022-05-19 10:36:00,,0817.6,5.01,0.00,30.0,28.8,00.0,38.9,31.8,08.8,0000.0,0003.67,0009.57,0001.89
2022-05-19 10:37:00,,0817.3,4.99,0.00,30.0,28.8,00.0,38.9,31.8,08.9,0000.0,0003.68,0009.60,0001.88
2022-05-19 10:38:00,,0817.5,5.00,0.00,30.0,28.8,00.0,39.0,31.8,08.8,0000.0,0003.67,0009.87,0001.88
2022-05-19 10:39:00,,0817.7,5.00,0.00,30.0,28.8,00.0,39.0,31.8,08.7,0000.0,0003.63,0010.22,0001.87
2022-05-19 10:40:00,,0817.7,5.00,0.00,30.0,28.8,00.0,39.0,31.8,08.8,0000.0,0003.59,0010.67,0001.86
2022-05-19 10:41:00,,0817.7,5.00,0.00,30.0,28.8,00.0,38.9,31.8,08.7,0000.0,0003.61,0010.70,0001.87
2022-05-19 10:42:00,,0817.6,5.00,0.00,30.0,28.8,00.0,38.9,31.7,08.7,0000.0,0003.63,0010.70,0001.89
2022-05-19 10:43:00,,0817.6,5.01,0.00,30.0,28.8,00.0,38.9,31.7,08.8,0000.0,0003.65,0010.92,0001.90
2022-05-19 10:44:00,,0817.5,5.00,0.00,30.0,28.8,00.0,38.9,31.8,08.8,0000.0,0003.59,0010.62,0001.89
2022-05-19 10:45:00,,0817.6,5.00,0.00,30.0,28.8,00.0,38.9,31.8,08.8,0000.0,0003.55,0010.46,0001.89
2022-05-19 10:46:00,,0817.6,5.00,0.00,30.0,28.8,00.0,38.9,31.8,08.8,0000.0,0003.55,0010.74,0001.92
2022-05-19 10:47:00,,0817.6,5.01,0.00,30.0,28.8,00.0,38.9,31.8,08.8,0000.0,0003.57,0010.81,0001.94
2022-05-19 10:48:00,,0817.5,4.99,0.00,30.0,28.8,00.0,38.9,31.7,08.7,0000.0,0003.58,0010.67,0001.94
2022-05-19 10:49:00,,0817.5,5.00,0.00,30.0,28.8,00.0,38.9,31.8,08.6,0000.0,0003.55,0010.36,0001.94
2022-05-19 10:50:00,,0817.3,5.00,0.00,30.0,28.8,00.0,38.9,31.7,08.7,0000.0,0003.55,0009.87,0001.95
2022-05-19 10:51:00,,0817.5,4.99,0.00,30.0,28.8,00.0,38.9,31.7,08.7,0000.0,0003.54,0009.66,0001.95
2022-05-19 10:52:00,,0817.5,5.01,0.00,30.0,28.8,00.0,38.9,31.7,08.7,0000.0,0003.53,0010.04,0001.95
2022-05-19 10:53:00,,0817.6,5.00,0.00,30.0,28.8,00.0,38.9,31.7,08.8,0000.0,0003.49,0009.86,0001.94
2022-05-19 10:54:00,,0817.5,5.00,0.00,30.0,28.8,00.0,38.9,31.7,08.9,0000.0,0003.43,0009.32,0001.93
2022-05-19 10:55:00,,0817.7,5.00,0.00,30.0,28.8,00.0,38.9,31.8,09.1,0000.0,0003.43,0009.04,0001.94
2022-05-19 10:56:00,,0817.8,5.00,0.00,30.0,28.8,00.0,38.9,31.7,09.5,0000.0,0003.52,0009.64,0001.97
2022-05-19 10:57:00,,0817.8,5.00,0.00,30.0,28.8,00.0,38.9,31.8,09.6,0000.0,0003.52,0009.51,0001.99
2022-05-19 10:58:00,,0817.7,5.00,0.00,30.0,28.8,00.0,38.9,31.8,09.6,0000.0,0003.55,0009.13,0002.02
2022-05-19 10:59:00,,0817.6,5.00,0.00,30.0,28.8,00.0,38.9,31.8,09.1,0000.0,0003.57,0009.66,0002.04
